Volver al catálogo

STARLINK-36907

ActivoComunicacionesVLEO
NORAD 67940·PAYLOAD·🇺🇸 United States

Lanzado Feb 24, 2026 desde Vandenberg Space Force Base

Loading…

Próximos Pases (próximas 24 horas)

TLE

ActualizadoSource: CelesTrak SupGP

Época: Sep 15, 2026, 02:56 UTC

1 67940C 26037J   26258.12270833 -.00067508  00000+0 -24455-2 0  2580
2 67940  43.0000 200.7845 0001330 274.1898  76.4221 15.27607529    14

Sigue STARLINK-36907 en tiempo real con AllMySat

Download on the App Store